Location: Avoca
(45.7167°N, 74.7000°W)
Time: 09:41:19
(UTC+00:00)

Tiangong - Pass Details

Date: 02 December 2022
Orbit: 383 x 386 km, 41.5° (Epoch: 30 January)

Event Time Altitude Azimuth Distance (km) Brightness Sun altitude
Rises 22:54:09 0° 240° (WSW) 2,252 3.3 -16.6°
Reaches altitude 10° 22:56:22 10° 228° (SW) 1,402 1.7 -16.9°
Maximum altitude 22:59:09 28° 167° (SSE) 751 -0.7 -17.4°
Enters shadow 22:59:41 27° 147° (SSE) 785 -0.8 -17.5°
